QPF
0.00 0.00 0.00 0.00 0.00 0.00 0.00 0.00 0.00 0.00 0.01 0.01 0.01 0.00 0.00 0.01 0.01 0.01 0.00 0.01 0.01 0.00 0.00 0.01 0.01 0.00 0.00 0.00 0.00 0.00 0.00 0.00 0.00 0.00 0.00 0.00 0.00 0.00 0.00 0.00 0.00 0.00 0.00
0.00 0.00 0.00 0.00 0.00 0.00 0.00 0.00 0.00 0.00 0.00 0.00 0.00 0.00 0.01 0.01 0.01 0.01 0.01 0.01 0.01 0.01 0.00 0.00 0.01 0.00 0.00 0.00 0.00 0.00 0.00 0.00 0.00 0.00 0.00 0.00 0.00 0.00 0.00 0.00 0.00 0.00 0.00
0.00 0.00 0.00 0.00 0.00 0.00 0.00 0.00 0.00 0.00 0.00 0.00 0.00 0.01 0.01 0.01 0.00 0.00 0.00 0.01 0.02 0.02 0.01 0.01 0.01 0.00 0.00 0.00 0.00 0.00 0.00 0.00 0.00 0.00 0.00 0.00 0.00 0.00 0.00 0.00 0.00 0.00 0.00
0.00 0.00 0.00 0.00 0.00 0.00 0.00 0.00 0.00 0.00 0.00 0.00 0.00 0.00 0.00 0.00 0.00 0.00 0.00 0.00 0.01 0.01 0.01 0.01 0.01 0.01 0.01 0.01 0.00 0.00 0.00 0.00 0.00 0.00 0.00 0.00 0.00 0.00 0.00 0.00 0.01 0.01 0.00
0.00 0.00 0.00 0.00 0.00 0.00 0.00 0.00 0.00 0.00 0.00 0.00 0.00 0.00 0.00 0.00 0.00 0.00 0.00 0.00 0.00 0.00 0.00 0.01 0.01 0.01 0.00 0.01 0.01 0.00 0.00 0.00 0.00 0.00 0.00 0.00 0.00 0.00 0.00 0.01 0.01 0.01 0.00
0.00 0.00 0.00 0.00 0.00 0.00 0.00 0.00 0.00 0.00 0.00 0.00 0.00 0.00 0.00 0.00 0.00 0.00 0.00 0.00 0.00 0.00 0.01 0.01 0.01 0.01 0.01 0.00 0.00 0.00 0.00 0.00 0.00 0.00 0.00 0.00 0.00 0.00 0.00 0.00 0.00 0.00 0.00
0.00 0.00 0.00 0.00 0.00 0.00 0.00 0.00 0.00 0.00 0.00 0.00 0.00 0.00 0.00 0.00 0.00 0.00 0.00 0.00 0.00 0.00 0.00 0.01 0.01 0.01 0.01 0.01 0.01 0.01 0.01 0.00 0.00 0.00 0.00 0.00 0.00 0.00 0.00 0.00 0.00 0.00 0.00
0.00 0.00 0.00 0.00 0.00 0.00 0.00 0.00 0.00 0.00 0.00 0.00 0.00 0.00 0.00 0.00 0.00 0.00 0.00 0.00 0.00 0.00 0.00 0.01 0.01 0.01 0.01 0.01 0.01 0.02 0.02 0.01 0.00 0.00 0.00 0.00 0.00 0.00 0.00 0.00 0.01 0.01 0.00
0.00 0.00 0.00 0.00 0.00 0.00 0.00 0.00 0.00 0.00 0.00 0.00 0.00 0.00 0.00 0.00 0.00 0.00 0.00 0.00 0.00 0.00 0.00 0.01 0.01 0.01 0.02 0.02 0.01 0.01 0.02 0.02 0.01 0.00 0.00 0.00 0.00 0.00 0.00 0.00 0.01 0.01 0.01
0.00 0.00 0.00 0.00 0.00 0.00 0.00 0.00 0.00 0.00 0.00 0.00 0.00 0.00 0.00 0.00 0.00 0.00 0.00 0.00 0.00 0.00 0.00 0.01 0.01 0.01 0.02 0.02 0.02 0.02 0.01 0.02 0.01 0.01 0.00 0.00 0.00 0.00 0.00 0.00 0.00 0.01 0.01
0.00 0.00 0.00 0.00 0.00 0.00 0.00 0.00 0.00 0.00 0.00 0.00 0.00 0.00 0.00 0.00 0.00 0.00 0.01 0.01 0.01 0.00 0.00 0.00 0.01 0.02 0.02 0.02 0.02 0.02 0.02 0.02 0.01 0.01 0.01 0.00 0.01 0.00 0.00 0.00 0.00 0.00 0.01
0.00 0.00 0.00 0.00 0.00 0.00 0.00 0.00 0.00 0.01 0.01 0.00 0.00 0.00 0.00 0.00 0.00 0.00 0.00 0.01 0.01 0.01 0.01 0.01 0.01 0.01 0.03 0.03 0.02 0.02 0.02 0.02 0.01 0.01 0.01 0.00 0.01 0.00 0.00 0.00 0.00 0.00 0.00
0.00 0.00 0.00 0.00 0.00 0.00 0.00 0.00 0.00 0.00 0.01 0.01 0.01 0.01 0.00 0.00 0.00 0.00 0.00 0.00 0.01 0.01 0.02 0.03 0.02 0.02 0.02 0.03 0.03 0.03 0.02 0.02 0.01 0.01 0.01 0.01 0.01 0.01 0.00 0.00 0.00 0.00 0.01
0.00 0.00 0.00 0.01 0.01 0.00 0.01 0.01 0.01 0.00 0.01 0.01 0.01 0.01 0.01 0.00 0.00 0.00 0.01 0.01 0.01 0.01 0.02 0.02 0.04 0.03 0.02 0.03 0.04 0.03 0.03 0.02 0.01 0.01 0.01 0.01 0.01 0.01 0.01 0.01 0.01 0.02 0.02
0.00 0.00 0.00 0.01 0.01 0.01 0.01 0.01 0.01 0.01 0.01 0.01 0.01 0.01 0.01 0.01 0.01 0.01 0.01 0.01 0.01 0.01 0.01 0.01 0.02 0.02 0.02 0.03 0.03 0.02 0.02 0.01 0.01 0.00 0.00 0.00 0.01 0.01 0.01 0.02 0.02 0.02 0.02
0.00 0.00 0.01 0.01 0.01 0.01 0.01 0.01 0.01 0.01 0.01 0.01 0.01 0.01 0.02 0.02 0.02 0.01 0.01 0.01 0.01 0.01 0.01 0.01 0.01 0.01 0.01 0.01 0.02 0.01 0.01 0.00 0.00 0.00 0.00 0.00 0.01 0.01 0.02 0.02 0.02 0.02 0.02
0.00 0.00 0.01 0.02 0.02 0.02 0.03 0.02 0.01 0.02 0.02 0.02 0.01 0.01 0.01 0.02 0.02 0.01 0.01 0.01 0.01 0.01 0.01 0.01 0.01 0.01 0.01 0.01 0.01 0.00 0.00 0.00 0.00 0.00 0.00 0.00 0.01 0.01 0.01 0.01 0.01 0.01 0.01
0.00 0.00 0.00 0.01 0.02 0.03 0.04 0.03 0.02 0.02 0.02 0.02 0.02 0.01 0.01 0.01 0.01 0.01 0.01 0.01 0.01 0.01 0.01 0.01 0.01 0.00 0.00 0.00 0.00 0.00 0.00 0.00 0.00 0.00 0.00 0.00 0.00 0.00 0.00 0.00 0.01 0.01 0.01
0.00 0.00 0.00 0.01 0.02 0.02 0.03 0.03 0.04 0.03 0.03 0.03 0.02 0.02 0.01 0.01 0.01 0.01 0.01 0.01 0.01 0.01 0.01 0.01 0.01 0.01 0.01 0.01 0.01 0.01 0.00 0.00 0.00 0.00 0.00 0.00 0.00 0.00 0.01 0.01 0.01 0.01 0.01
0.01 0.01 0.01 0.00 0.01 0.02 0.02 0.02 0.03 0.03 0.03 0.03 0.03 0.03 0.02 0.02 0.02 0.02 0.02 0.01 0.01 0.01 0.01 0.01 0.01 0.01 0.01 0.01 0.01 0.01 0.01 0.00 0.00 0.00 0.00 0.00 0.01 0.01 0.01 0.01 0.01 0.01 0.01
0.01 0.02 0.02 0.02 0.01 0.02 0.02 0.03 0.03 0.03 0.03 0.03 0.03 0.03 0.03 0.03 0.03 0.03 0.02 0.02 0.02 0.02 0.01 0.01 0.01 0.01 0.01 0.01 0.01 0.01 0.01 0.01 0.00 0.00 0.00 0.00 0.01 0.01 0.01 0.01 0.01 0.01 0.02
0.02 0.02 0.03 0.04 0.03 0.02 0.03 0.03 0.02 0.02 0.02 0.02 0.02 0.03 0.03 0.02 0.02 0.02 0.02 0.02 0.02 0.01 0.01 0.01 0.01 0.01 0.01 0.01 0.01 0.01 0.01 0.01 0.01 0.00 0.00 0.00 0.01 0.01 0.01 0.01 0.01 0.02 0.02
0.02 0.02 0.02 0.02 0.03 0.03 0.03 0.03 0.02 0.02 0.02 0.02 0.01 0.01 0.02 0.01 0.01 0.02 0.02 0.01 0.01 0.01 0.01 0.01 0.01 0.01 0.01 0.01 0.01 0.00 0.00 0.01 0.01 0.01 0.01 0.01 0.01 0.01 0.01 0.01 0.01 0.01 0.01
0.02 0.02 0.02 0.02 0.02 0.02 0.02 0.02 0.02 0.02 0.02 0.02 0.02 0.02 0.01 0.02 0.02 0.02 0.02 0.02 0.02 0.02 0.02 0.02 0.01 0.01 0.01 0.00 0.00 0.00 0.00 0.01 0.01 0.01 0.01 0.01 0.01 0.01 0.01 0.01 0.01 0.01 0.01
0.03 0.03 0.03 0.03 0.03 0.02 0.02 0.01 0.02 0.02 0.02 0.03 0.03 0.03 0.02 0.02 0.02 0.02 0.02 0.02 0.02 0.02 0.02 0.02 0.02 0.01 0.01 0.01 0.01 0.01 0.01 0.01 0.01 0.01 0.01 0.01 0.00 0.00 0.01 0.01 0.01 0.01 0.01
0.03 0.03 0.03 0.03 0.02 0.02 0.02 0.02 0.02 0.02 0.02 0.02 0.02 0.03 0.03 0.02 0.02 0.02 0.02 0.02 0.01 0.01 0.01 0.01 0.01 0.02 0.02 0.02 0.02 0.02 0.01 0.01 0.01 0.01 0.01 0.01 0.01 0.01 0.01 0.01 0.01 0.01 0.01
MSLP
1007.49 1007.24 1007.02 1006.85 1006.72 1006.65 1006.68 1006.81 1007.07 1007.46 1007.94 1008.50 1009.09 1009.68 1010.24 1010.73 1011.16 1011.54 1011.89 1012.23 1012.60 1013.02 1013.48 1014.00 1014.54 1015.10 1015.65 1016.17 1016.64 1017.07 1017.45 1017.80 1018.12 1018.41 1018.68 1018.92 1019.12 1019.27 1019.36 1019.38 1019.34 1019.26 1019.16
1006.72 1006.47 1006.24 1006.05 1005.89 1005.80 1005.81 1005.94 1006.22 1006.63 1007.17 1007.79 1008.45 1009.09 1009.68 1010.20 1010.65 1011.03 1011.39 1011.74 1012.12 1012.55 1013.04 1013.59 1014.16 1014.73 1015.29 1015.81 1016.30 1016.74 1017.14 1017.53 1017.90 1018.26 1018.61 1018.93 1019.20 1019.41 1019.55 1019.60 1019.59 1019.52 1019.43
1005.86 1005.61 1005.39 1005.18 1005.02 1004.91 1004.91 1005.05 1005.34 1005.79 1006.37 1007.04 1007.75 1008.44 1009.07 1009.62 1010.09 1010.49 1010.86 1011.24 1011.64 1012.10 1012.61 1013.16 1013.74 1014.32 1014.87 1015.39 1015.86 1016.30 1016.73 1017.15 1017.57 1018.00 1018.43 1018.83 1019.18 1019.46 1019.65 1019.75 1019.78 1019.74 1019.67
1004.99 1004.75 1004.53 1004.32 1004.15 1004.05 1004.04 1004.18 1004.48 1004.95 1005.55 1006.25 1006.98 1007.70 1008.36 1008.94 1009.43 1009.86 1010.26 1010.66 1011.10 1011.58 1012.11 1012.68 1013.27 1013.84 1014.38 1014.89 1015.36 1015.81 1016.25 1016.71 1017.19 1017.68 1018.18 1018.65 1019.08 1019.43 1019.68 1019.83 1019.90 1019.90 1019.87
1004.23 1003.99 1003.77 1003.57 1003.39 1003.27 1003.26 1003.38 1003.67 1004.13 1004.72 1005.41 1006.15 1006.87 1007.54 1008.13 1008.64 1009.10 1009.53 1009.97 1010.44 1010.96 1011.52 1012.11 1012.71 1013.29 1013.84 1014.35 1014.83 1015.30 1015.78 1016.28 1016.82 1017.37 1017.94 1018.48 1018.97 1019.37 1019.68 1019.88 1019.99 1020.04 1020.04
1003.68 1003.43 1003.21 1002.99 1002.80 1002.65 1002.60 1002.69 1002.94 1003.35 1003.90 1004.55 1005.25 1005.94 1006.60 1007.19 1007.71 1008.20 1008.66 1009.14 1009.65 1010.21 1010.81 1011.44 1012.06 1012.67 1013.25 1013.79 1014.32 1014.83 1015.37 1015.93 1016.53 1017.15 1017.78 1018.37 1018.91 1019.36 1019.71 1019.95 1020.10 1020.18 1020.23
1003.41 1003.15 1002.90 1002.65 1002.41 1002.22 1002.12 1002.13 1002.31 1002.64 1003.12 1003.69 1004.32 1004.96 1005.58 1006.15 1006.68 1007.18 1007.67 1008.20 1008.76 1009.36 1010.01 1010.68 1011.36 1012.02 1012.65 1013.26 1013.85 1014.45 1015.06 1015.70 1016.38 1017.07 1017.75 1018.39 1018.97 1019.45 1019.82 1020.09 1020.27 1020.39 1020.46
1003.44 1003.15 1002.87 1002.56 1002.26 1002.00 1001.81 1001.73 1001.81 1002.04 1002.40 1002.88 1003.42 1003.99 1004.55 1005.09 1005.61 1006.12 1006.64 1007.20 1007.81 1008.47 1009.17 1009.91 1010.64 1011.38 1012.09 1012.79 1013.48 1014.17 1014.88 1015.62 1016.38 1017.14 1017.88 1018.57 1019.17 1019.68 1020.07 1020.36 1020.55 1020.69 1020.78
1003.77 1003.45 1003.10 1002.72 1002.33 1001.97 1001.67 1001.49 1001.44 1001.56 1001.81 1002.17 1002.62 1003.11 1003.61 1004.11 1004.61 1005.12 1005.67 1006.26 1006.91 1007.62 1008.38 1009.17 1009.99 1010.80 1011.60 1012.40 1013.21 1014.02 1014.84 1015.68 1016.53 1017.37 1018.16 1018.88 1019.52 1020.04 1020.44 1020.74 1020.95 1021.09 1021.20
1004.36 1003.99 1003.56 1003.09 1002.60 1002.12 1001.71 1001.41 1001.26 1001.25 1001.39 1001.65 1002.00 1002.41 1002.86 1003.32 1003.80 1004.32 1004.88 1005.49 1006.17 1006.92 1007.72 1008.57 1009.45 1010.34 1011.24 1012.15 1013.06 1013.99 1014.93 1015.87 1016.80 1017.71 1018.55 1019.31 1019.96 1020.49 1020.90 1021.20 1021.42 1021.57 1021.67
1005.15 1004.72 1004.22 1003.65 1003.05 1002.46 1001.94 1001.53 1001.28 1001.17 1001.22 1001.40 1001.67 1002.02 1002.41 1002.84 1003.30 1003.81 1004.37 1005.00 1005.70 1006.47 1007.31 1008.20 1009.12 1010.08 1011.05 1012.04 1013.05 1014.08 1015.12 1016.15 1017.16 1018.12 1019.00 1019.78 1020.45 1020.99 1021.40 1021.70 1021.92 1022.06 1022.15
1006.09 1005.61 1005.02 1004.35 1003.65 1002.97 1002.36 1001.87 1001.54 1001.37 1001.35 1001.46 1001.68 1001.98 1002.34 1002.74 1003.18 1003.68 1004.24 1004.86 1005.56 1006.34 1007.19 1008.09 1009.05 1010.04 1011.06 1012.12 1013.19 1014.29 1015.39 1016.49 1017.55 1018.55 1019.45 1020.25 1020.92 1021.46 1021.87 1022.16 1022.37 1022.50 1022.56
1007.13 1006.60 1005.94 1005.19 1004.41 1003.66 1002.99 1002.45 1002.07 1001.86 1001.80 1001.88 1002.07 1002.34 1002.66 1003.04 1003.47 1003.95 1004.49 1005.11 1005.80 1006.57 1007.40 1008.31 1009.26 1010.26 1011.31 1012.38 1013.49 1014.62 1015.76 1016.88 1017.96 1018.97 1019.88 1020.68 1021.34 1021.86 1022.25 1022.53 1022.72 1022.83 1022.87
1008.24 1007.66 1006.95 1006.15 1005.32 1004.53 1003.83 1003.27 1002.88 1002.66 1002.59 1002.65 1002.82 1003.07 1003.37 1003.73 1004.14 1004.60 1005.13 1005.73 1006.40 1007.14 1007.96 1008.84 1009.77 1010.76 1011.79 1012.86 1013.96 1015.09 1016.22 1017.33 1018.40 1019.39 1020.29 1021.05 1021.69 1022.18 1022.54 1022.80 1022.95 1023.03 1023.04
1009.38 1008.78 1008.03 1007.20 1006.36 1005.56 1004.87 1004.33 1003.95 1003.74 1003.68 1003.74 1003.89 1004.12 1004.41 1004.75 1005.13 1005.58 1006.08 1006.66 1007.31 1008.02 1008.81 1009.65 1010.56 1011.51 1012.50 1013.53 1014.60 1015.69 1016.78 1017.85 1018.88 1019.83 1020.67 1021.39 1021.98 1022.43 1022.75 1022.96 1023.07 1023.11 1023.08
1010.52 1009.89 1009.14 1008.32 1007.49 1006.72 1006.07 1005.57 1005.22 1005.04 1004.99 1005.05 1005.20 1005.41 1005.68 1005.99 1006.36 1006.78 1007.27 1007.82 1008.45 1009.14 1009.89 1010.70 1011.56 1012.46 1013.40 1014.38 1015.39 1016.41 1017.44 1018.45 1019.40 1020.29 1021.07 1021.72 1022.24 1022.64 1022.90 1023.05 1023.12 1023.12 1023.05
1011.60 1010.98 1010.24 1009.45 1008.67 1007.96 1007.37 1006.92 1006.62 1006.46 1006.43 1006.49 1006.63 1006.82 1007.07 1007.36 1007.71 1008.11 1008.58 1009.12 1009.73 1010.40 1011.13 1011.90 1012.72 1013.56 1014.45 1015.36 1016.29 1017.24 1018.18 1019.11 1019.98 1020.78 1021.48 1022.07 1022.52 1022.84 1023.04 1023.14 1023.15 1023.10 1022.99
1012.58 1011.98 1011.28 1010.55 1009.84 1009.20 1008.68 1008.29 1008.04 1007.92 1007.90 1007.96 1008.09 1008.27 1008.49 1008.76 1009.09 1009.48 1009.94 1010.47 1011.06 1011.72 1012.42 1013.16 1013.93 1014.73 1015.55 1016.39 1017.24 1018.11 1018.97 1019.81 1020.60 1021.31 1021.93 1022.44 1022.82 1023.08 1023.21 1023.25 1023.21 1023.11 1022.97
1013.44 1012.87 1012.22 1011.56 1010.93 1010.38 1009.94 1009.62 1009.42 1009.32 1009.32 1009.38 1009.49 1009.65 1009.86 1010.11 1010.43 1010.80 1011.26 1011.78 1012.36 1013.00 1013.68 1014.39 1015.12 1015.86 1016.62 1017.39 1018.18 1018.96 1019.74 1020.50 1021.21 1021.85 1022.40 1022.84 1023.15 1023.35 1023.43 1023.42 1023.33 1023.19 1023.01
1014.15 1013.62 1013.04 1012.46 1011.92 1011.45 1011.09 1010.83 1010.68 1010.62 1010.63 1010.69 1010.79 1010.94 1011.13 1011.37 1011.67 1012.05 1012.49 1013.00 1013.57 1014.19 1014.85 1015.52 1016.21 1016.91 1017.61 1018.31 1019.03 1019.74 1020.45 1021.14 1021.78 1022.36 1022.85 1023.24 1023.51 1023.66 1023.70 1023.64 1023.52 1023.34 1023.13
1014.74 1014.26 1013.75 1013.24 1012.79 1012.41 1012.12 1011.92 1011.82 1011.78 1011.80 1011.87 1011.97 1012.11 1012.29 1012.53 1012.82 1013.19 1013.62 1014.12 1014.67 1015.27 1015.89 1016.52 1017.17 1017.81 1018.46 1019.11 1019.76 1020.42 1021.07 1021.70 1022.29 1022.82 1023.27 1023.62 1023.86 1023.98 1023.99 1023.91 1023.76 1023.56 1023.32
1015.24 1014.82 1014.38 1013.95 1013.57 1013.27 1013.04 1012.90 1012.83 1012.82 1012.86 1012.93 1013.04 1013.18 1013.36 1013.60 1013.89 1014.24 1014.66 1015.14 1015.66 1016.22 1016.80 1017.39 1017.99 1018.58 1019.17 1019.77 1020.38 1020.98 1021.59 1022.18 1022.73 1023.23 1023.64 1023.97 1024.19 1024.29 1024.29 1024.20 1024.03 1023.81 1023.56
1015.72 1015.35 1014.97 1014.61 1014.31 1014.06 1013.89 1013.79 1013.75 1013.77 1013.82 1013.91 1014.03 1014.18 1014.36 1014.60 1014.89 1015.23 1015.63 1016.08 1016.57 1017.08 1017.62 1018.16 1018.70 1019.25 1019.80 1020.35 1020.91 1021.47 1022.04 1022.59 1023.12 1023.59 1023.98 1024.29 1024.50 1024.59 1024.59 1024.48 1024.31 1024.08 1023.81
1016.22 1015.90 1015.58 1015.28 1015.02 1014.83 1014.69 1014.62 1014.61 1014.65 1014.73 1014.83 1014.97 1015.13 1015.33 1015.57 1015.85 1016.18 1016.56 1016.98 1017.43 1017.90 1018.39 1018.88 1019.37 1019.87 1020.38 1020.89 1021.41 1021.94 1022.48 1023.00 1023.49 1023.93 1024.31 1024.59 1024.78 1024.87 1024.86 1024.76 1024.58 1024.34 1024.06
1016.79 1016.52 1016.24 1015.98 1015.76 1015.59 1015.48 1015.44 1015.44 1015.50 1015.59 1015.72 1015.88 1016.06 1016.28 1016.52 1016.81 1017.13 1017.49 1017.88 1018.29 1018.72 1019.16 1019.61 1020.06 1020.52 1020.99 1021.47 1021.96 1022.46 1022.96 1023.44 1023.89 1024.30 1024.64 1024.90 1025.06 1025.13 1025.11 1025.00 1024.82 1024.57 1024.29
1017.43 1017.20 1016.96 1016.73 1016.53 1016.37 1016.28 1016.24 1016.26 1016.33 1016.44 1016.59 1016.77 1016.98 1017.22 1017.48 1017.77 1018.09 1018.44 1018.80 1019.19 1019.58 1019.99 1020.40 1020.83 1021.26 1021.70 1022.15 1022.61 1023.07 1023.52 1023.96 1024.36 1024.71 1025.00 1025.21 1025.34 1025.37 1025.33 1025.20 1025.02 1024.77 1024.48
Thickness
5675 5677 5679 5679 5680 5680 5680 5680 5679 5678 5677 5674 5672 5670 5669 5669 5668 5668 5667 5666 5664 5662 5660 5658 5656 5654 5651 5648 5645 5642 5639 5636 5634 5632 5630 5630 5630 5629 5627 5625 5623 5621 5619
5666 5669 5671 5672 5674 5674 5674 5674 5673 5672 5672 5671 5669 5666 5664 5662 5662 5661 5659 5658 5657 5655 5653 5651 5648 5645 5642 5639 5637 5634 5629 5626 5624 5621 5617 5615 5616 5617 5617 5614 5612 5610 5608
5662 5663 5664 5665 5666 5667 5668 5669 5667 5667 5666 5665 5662 5659 5655 5653 5651 5651 5650 5650 5649 5647 5646 5643 5640 5637 5634 5631 5628 5625 5621 5616 5613 5611 5607 5602 5601 5601 5604 5603 5601 5599 5596
5656 5658 5659 5659 5660 5661 5662 5662 5661 5660 5659 5658 5655 5652 5649 5645 5645 5644 5642 5641 5640 5639 5637 5635 5632 5629 5625 5622 5619 5616 5613 5609 5604 5600 5598 5594 5592 5588 5589 5591 5589 5586 5584
5650 5652 5654 5655 5654 5654 5654 5654 5653 5652 5652 5650 5648 5645 5642 5640 5637 5635 5633 5632 5631 5629 5628 5626 5623 5620 5616 5613 5610 5607 5603 5600 5595 5591 5587 5584 5580 5577 5574 5576 5576 5574 5573
5642 5644 5646 5646 5645 5644 5645 5645 5644 5643 5642 5641 5639 5637 5635 5632 5628 5626 5624 5622 5621 5619 5618 5616 5613 5610 5607 5604 5600 5597 5594 5590 5586 5582 5578 5574 5571 5567 5563 5562 5562 5562 5562
5634 5635 5635 5636 5635 5635 5635 5635 5635 5634 5633 5632 5630 5629 5627 5625 5622 5619 5616 5613 5611 5609 5608 5606 5603 5600 5597 5594 5590 5587 5583 5580 5576 5572 5568 5565 5562 5558 5554 5551 5549 5549 5550
5626 5627 5628 5628 5627 5626 5626 5626 5625 5624 5623 5622 5621 5619 5618 5615 5613 5610 5608 5605 5603 5601 5599 5596 5593 5590 5586 5583 5580 5576 5573 5569 5566 5562 5558 5554 5551 5548 5543 5539 5535 5534 5536
5617 5617 5618 5618 5617 5616 5616 5616 5615 5614 5613 5612 5611 5609 5608 5606 5603 5601 5598 5596 5594 5591 5588 5585 5582 5579 5576 5572 5569 5565 5562 5558 5554 5550 5547 5543 5540 5536 5532 5528 5523 5519 5519
5606 5606 5607 5607 5606 5606 5605 5605 5605 5604 5602 5602 5601 5600 5597 5596 5593 5590 5587 5585 5583 5580 5577 5574 5571 5567 5564 5561 5557 5554 5550 5547 5543 5539 5535 5532 5528 5524 5521 5516 5512 5507 5504
5595 5594 5594 5595 5594 5594 5593 5593 5592 5592 5591 5590 5590 5588 5586 5584 5582 5579 5576 5574 5571 5569 5566 5563 5559 5555 5552 5549 5546 5542 5538 5535 5531 5528 5524 5520 5516 5512 5508 5504 5500 5496 5491
5582 5581 5581 5581 5581 5581 5581 5581 5580 5580 5579 5578 5577 5575 5574 5572 5569 5566 5564 5562 5559 5557 5554 5551 5547 5543 5540 5537 5533 5529 5526 5523 5520 5516 5512 5508 5504 5500 5496 5492 5488 5485 5481
5567 5567 5567 5568 5568 5568 5568 5568 5568 5567 5566 5566 5564 5563 5561 5559 5557 5554 5552 5550 5547 5544 5541 5538 5535 5531 5528 5524 5521 5517 5514 5511 5507 5503 5499 5496 5491 5488 5485 5481 5477 5474 5471
5554 5553 5553 5553 5554 5555 5555 5555 5554 5554 5554 5553 5552 5550 5548 5547 5544 5542 5539 5537 5534 5532 5529 5526 5522 5519 5515 5512 5509 5505 5502 5498 5494 5491 5487 5483 5480 5476 5473 5470 5467 5463 5460
5540 5540 5539 5539 5539 5540 5541 5542 5542 5541 5541 5540 5538 5537 5535 5533 5531 5529 5526 5524 5521 5519 5516 5512 5509 5506 5503 5500 5496 5493 5489 5486 5482 5479 5475 5472 5469 5466 5463 5460 5457 5452 5449
5527 5527 5527 5526 5526 5526 5528 5528 5528 5528 5527 5527 5526 5524 5522 5520 5518 5516 5513 5510 5508 5505 5502 5499 5496 5494 5491 5488 5485 5482 5478 5474 5470 5467 5463 5460 5457 5454 5452 5449 5446 5443 5438
5514 5513 5513 5513 5513 5514 5515 5515 5515 5514 5514 5513 5512 5511 5510 5507 5505 5502 5500 5497 5494 5491 5488 5486 5483 5481 5478 5476 5473 5470 5466 5462 5458 5454 5451 5449 5446 5443 5440 5438 5436 5432 5428
5501 5500 5499 5500 5500 5501 5502 5502 5501 5501 5500 5499 5498 5497 5496 5494 5491 5489 5486 5484 5482 5479 5476 5473 5471 5468 5466 5464 5461 5458 5453 5450 5446 5443 5440 5437 5435 5432 5430 5428 5425 5422 5418
5488 5487 5488 5488 5488 5489 5489 5489 5487 5487 5487 5486 5485 5484 5483 5481 5478 5476 5473 5471 5469 5466 5464 5461 5459 5456 5454 5451 5449 5446 5441 5438 5435 5432 5429 5427 5425 5424 5421 5418 5415 5412 5408
5475 5475 5475 5476 5476 5477 5477 5476 5474 5474 5473 5473 5473 5471 5470 5469 5466 5464 5462 5460 5457 5455 5452 5449 5446 5444 5441 5440 5437 5434 5430 5427 5425 5422 5419 5417 5415 5414 5411 5407 5403 5400 5398
5462 5463 5463 5463 5463 5464 5464 5463 5462 5461 5461 5461 5460 5459 5457 5456 5455 5452 5450 5448 5446 5443 5439 5437 5434 5432 5430 5428 5426 5423 5419 5416 5414 5411 5409 5406 5405 5403 5400 5397 5393 5390 5388
5448 5449 5449 5449 5450 5451 5451 5450 5449 5449 5448 5448 5447 5446 5444 5443 5443 5440 5437 5435 5433 5430 5427 5425 5423 5421 5419 5417 5415 5413 5410 5407 5403 5401 5398 5396 5395 5392 5390 5386 5384 5381 5378
5434 5435 5436 5436 5437 5438 5439 5438 5437 5436 5436 5435 5434 5433 5431 5430 5430 5428 5426 5423 5421 5418 5416 5414 5413 5411 5409 5406 5405 5402 5400 5397 5393 5391 5389 5387 5384 5381 5379 5376 5374 5371 5367
5420 5422 5423 5423 5424 5424 5425 5425 5424 5424 5423 5422 5421 5420 5419 5418 5417 5416 5415 5412 5410 5408 5407 5405 5403 5401 5399 5396 5394 5392 5389 5387 5384 5381 5378 5376 5373 5370 5368 5366 5363 5360 5357
5407 5408 5409 5410 5411 5411 5412 5412 5412 5411 5409 5409 5408 5408 5407 5406 5404 5404 5402 5402 5401 5400 5399 5397 5394 5392 5390 5389 5387 5383 5381 5377 5374 5371 5368 5365 5362 5359 5357 5355 5353 5351 5348
5394 5395 5395 5396 5397 5398 5399 5399 5399 5399 5398 5396 5395 5395 5394 5393 5392 5391 5391 5391 5391 5391 5390 5388 5385 5383 5382 5380 5378 5375 5372 5369 5366 5362 5357 5354 5352 5349 5347 5345 5343 5341 5339